[[{"header":{"parameterUnit":"m.s-1","parameterCategory":1,"la1":30.2991,"la2":30.254,"lo1":-89.0895,"lo2":-89.0444,"dy":0.0017,"dx":0.0017,"nx":28,"ny":28,"refTime":"2024-03-06T03:00:00:Z","depth":0,"parameterNumber":2,"parameterNumberName":"U-component_of_WINDS"},"data":[0,0,0,0,0,0,0,0,0,0,0,0,0,0,0,0,0,0,0,0,0,0,0,0,0,0,0,0,0,0,0,0,0,0,0,0,0,0,0,0,0,0,0,0,0,0,0,0,0,0,0,0,0,0,0,0,0,0,2.1372,2.1373,0,2.1393,2.1394,2.1394,2.1372,2.1371,2.137,2.137,2.1389,2.1391,2.1392,0,0,0,0,0,0,0,0,0,0,0,0,0,2.1312,2.1313,2.1372,2.1373,2.1373,2.1393,2.1394,2.1394,2.1372,2.1371,2.137,2.1369,2.1389,2.1391,2.1392,0,0,0,0,0,0,0,0,0,0,0,0,0,2.1336,2.1313,2.1372,2.1365,2.1364,2.1393,2.1394,2.1394,2.1372,2.1371,2.137,2.1369,2.1389,2.139,2.1392,2.143,0,0,2.1398,2.1399,0,0,0,0,0,0,0,0,2.1334,2.1338,2.1366,2.1365,2.1365,2.1379,2.1379,2.1406,2.1373,2.1369,2.137,2.1368,2.1387,2.1389,2.1395,2.143,2.1431,2.1399,2.14,2.1401,2.1401,0,0,0,0,0,0,0,2.1333,2.1337,2.1381,2.1366,2.1365,2.1359,2.1361,2.1384,2.1385,2.1369,2.1368,2.1371,2.1386,2.1394,2.1396,2.1432,2.1398,2.14,2.1401,2.1402,2.1497,2.1499,0,0,0,0,0,0,2.1332,2.1336,2.138,2.1381,2.1346,2.1362,2.1364,2.1376,2.1384,2.1385,2.1372,2.137,2.1391,2.1394,2.1396,2.144,2.1401,2.1402,2.1404,2.1496,2.1498,2.1499,0,0,0,0,0,0,2.1331,2.1336,2.1379,2.1358,2.1363,2.1364,2.1377,2.1377,2.1384,2.1386,2.1386,2.1379,2.139,2.1394,2.1421,2.1441,2.1403,2.1405,2.1494,2.1496,2.1498,2.1528,0,0,0,0,0,0,2.1329,2.1336,2.1351,2.1359,2.1364,2.1405,2.1378,2.1378,2.1388,2.1385,2.1393,2.1393,2.1389,2.1419,2.1423,2.1443,2.1407,2.1493,2.1495,2.1498,2.1526,2.1531,2.1536,0,0,0,0,0,2.1327,2.1358,2.1352,2.1357,2.1383,2.1406,2.1409,2.1404,2.1389,2.1404,2.1405,2.1393,2.1438,2.1422,2.1427,2.1447,2.1491,2.1495,2.1497,2.1523,2.153,2.1536,0,0,0,0,0,0,2.1353,2.1359,2.1352,2.1387,2.1396,2.1402,2.142,2.1411,2.1425,2.1422,2.1414,2.1416,2.1446,2.1449,2.1431,2.1483,2.1462,2.1466,2.148,2.1486,2.1491,2.149,2.1408,0,0,0,0,0,2.1362,2.1381,2.1385,2.1415,2.142,2.142,2.1429,2.1425,2.1434,2.1437,2.1441,2.1449,2.1465,2.1476,2.1491,2.1526,2.1527,2.1542,2.1547,2.1551,2.1555,2.1573,2.158,2.1509,2.1509,2.1509,0,0,2.1382,2.1388,2.14,2.1421,2.1427,2.1446,2.1423,2.1444,2.1457,2.144,2.1467,2.147,2.1479,2.151,2.1524,2.1514,2.1575,2.1555,2.1558,2.156,2.1577,2.1584,2.159,2.1511,2.1511,2.151,0,0,2.1428,2.1435,2.1461,2.1467,2.1478,2.1477,2.1483,2.149,2.1492,2.1518,2.1505,2.1521,2.1549,2.1556,2.1563,2.161,2.16,2.1615,2.1642,2.166,2.1665,2.167,2.1687,2.1693,2.1619,2.1619,2.1619,0,2.1452,2.148,2.1475,2.1496,2.1505,2.1491,2.1516,2.1523,2.1537,2.1543,2.1532,2.1565,2.1571,2.1603,2.1615,2.1621,2.1627,2.1614,2.1665,2.167,2.1675,2.169,2.1697,2.1621,2.1621,2.162,2.162,0,2.1509,2.1528,2.1548,2.1562,2.1573,2.1597,2.1594,2.1605,2.1599,2.1599,2.1626,2.1632,2.1647,2.1654,2.1649,2.1686,2.1679,2.1666,2.1645,2.1683,2.1698,2.1704,2.1623,2.1623,2.1622,2.1622,0,0,2.1572,2.1583,2.159,2.1596,2.1606,2.162,2.1643,2.1658,2.1668,2.1678,2.1696,2.1719,2.1707,2.1715,2.171,2.1726,2.1763,2.1711,2.1711,2.1721,2.1804,2.1813,2.1821,2.1756,2.1757,2.1758,2.1803,0,2.1619,2.1658,2.1653,2.169,2.1708,2.1694,2.1713,2.172,2.1721,2.1735,2.1735,2.1752,2.1735,2.174,2.1755,2.1755,2.178,2.1752,2.1772,2.1773,2.1771,2.1828,2.1839,2.1881,2.1809,2.181,2.181,0,2.1678,2.1691,2.173,2.1736,2.1743,2.1761,2.1774,2.1788,2.1796,2.1795,2.1804,2.1796,2.1817,2.1795,2.1824,2.1806,2.1814,2.1815,2.1816,2.1818,2.1794,2.1832,2.1895,2.1901,2.182,2.1819,2.1818,0,2.172,2.1747,2.1774,2.1779,2.1787,2.18,2.1804,2.181,2.1819,2.1831,2.1836,2.185,2.1857,2.1868,2.1863,2.1848,2.1893,2.1871,2.1892,2.1892,2.1903,2.1902,2.1968,2.1908,2.1907,2.1907,2.1907,0,2.1773,2.1798,2.1793,2.1809,2.1836,2.1829,2.1855,2.1857,2.1863,2.1879,2.1867,2.1883,2.1876,2.189,2.1886,2.1911,2.1914,2.1914,2.1912,2.1915,2.1915,2.192,2.1917,2.1909,2.1909,2.1908,2.1908,0,2.1825,2.1823,2.1851,2.1856,2.1858,2.1877,2.1881,2.1896,2.1895,2.1916,2.192,2.1918,2.1935,2.1931,2.1949,2.1946,2.1977,2.1972,2.1974,2.1973,2.1995,2.1993,2.2066,2.2075,2.2009,2.201,2.201,0,2.1859,2.1877,2.1884,2.1894,2.1899,2.1915,2.1925,2.1918,2.1928,2.1938,2.1952,2.1967,2.1979,2.2006,2.2006,2.2019,2.2014,2.2039,2.2016,2.2018,2.2014,2.2014,2.2015,2.2044,2.2044,2.2045,2.2046,0,2.1919,2.1917,2.1931,2.1944,2.1956,2.1966,2.1975,2.1984,2.1978,2.199,2.2006,2.2016,2.2034,2.2049,2.2061,2.2064,2.2054,2.2053,2.2058,2.2061,2.2062,2.2061,2.1987,2.2051,2.205,2.205,2.205,2.205,2.1963,2.1978,2.1986,2.2001,2.2007,2.2016,2.203,2.2031,2.2045,2.2059,2.2054,2.2073,2.2079,2.2095,2.2099,2.2113,2.2104,2.2112,2.2114,2.2116,2.2119,2.2059,2.2115,2.2115,2.2115,2.2115,2.2115,0,2.2022,2.2026,2.2041,2.2054,2.2066,2.2055,2.2064,2.2075,2.2092,2.2099,2.211,2.2129,2.2143,2.2144,2.2158,2.2169,2.2164,2.2173,2.2172,2.2172,2.2127,2.212,2.2176,2.2176,2.2176,2.2176,2.2176,2.2176,2.2055,2.208,2.2079,2.2107,2.211,2.2128,2.2134,2.2142,2.2147,2.2169,2.2181,2.2181,2.2185,2.2199,2.2211,2.2211,2.2216,2.2226,2.2224,2.2182,2.2176,2.217,2.2164,2.2228,2.2228,2.2269,2.2269,2.227]},{"header":{"parameterUnit":"m.s-1","parameterCategory":1,"la1":30.2991,"la2":30.254,"lo1":-89.0895,"lo2":-89.0444,"dy":0.0017,"dx":0.0017,"nx":28,"ny":28,"refTime":"2024-03-06T03:00:00:Z","depth":0,"parameterNumber":3,"parameterNumberName":"V-component_of_WINDS"},"data":[0,0,0,0,0,0,0,0,0,0,0,0,0,0,0,0,0,0,0,0,0,0,0,0,0,0,0,0,0,0,0,0,0,0,0,0,0,0,0,0,0,0,0,0,0,0,0,0,0,0,0,0,0,0,0,0,0,0,-0.0887,-0.0887,0,-0.0922,-0.0923,-0.0923,-0.0945,-0.0946,-0.0946,-0.0946,-0.0981,-0.0982,-0.0983,0,0,0,0,0,0,0,0,0,0,0,0,0,-0.0839,-0.084,-0.0887,-0.0887,-0.0888,-0.0922,-0.0923,-0.0923,-0.0945,-0.0946,-0.0946,-0.0946,-0.0981,-0.0982,-0.0983,0,0,0,0,0,0,0,0,0,0,0,0,0,-0.0866,-0.084,-0.0887,-0.0903,-0.0905,-0.0922,-0.0923,-0.0923,-0.0945,-0.0946,-0.0946,-0.0946,-0.0981,-0.0982,-0.0983,-0.0987,0,0,-0.0987,-0.0987,0,0,0,0,0,0,0,0,-0.0864,-0.0868,-0.09,-0.0902,-0.0904,-0.093,-0.0919,-0.0944,-0.0945,-0.093,-0.0946,-0.0946,-0.0964,-0.0967,-0.0973,-0.0988,-0.099,-0.0987,-0.0988,-0.0988,-0.0989,0,0,0,0,0,0,0,-0.0863,-0.0866,-0.0901,-0.0901,-0.0903,-0.0909,-0.0913,-0.0924,-0.0945,-0.0931,-0.0933,-0.0937,-0.0965,-0.0971,-0.0974,-0.099,-0.0987,-0.0988,-0.0989,-0.0989,-0.1012,-0.1012,0,0,0,0,0,0,-0.0858,-0.0865,-0.09,-0.0902,-0.0884,-0.091,-0.0914,-0.0921,-0.0945,-0.0949,-0.0937,-0.0938,-0.0969,-0.0972,-0.0975,-0.0982,-0.0988,-0.0989,-0.099,-0.1012,-0.1012,-0.1012,0,0,0,0,0,0,-0.0857,-0.0861,-0.0898,-0.0884,-0.0889,-0.091,-0.0918,-0.0922,-0.0928,-0.0949,-0.0953,-0.0939,-0.097,-0.0973,-0.0984,-0.0983,-0.099,-0.0991,-0.1012,-0.1012,-0.1012,-0.0994,0,0,0,0,0,0,-0.0856,-0.086,-0.0862,-0.0884,-0.089,-0.0906,-0.0918,-0.0922,-0.093,-0.0932,-0.0953,-0.0957,-0.097,-0.0982,-0.0985,-0.0985,-0.0992,-0.1013,-0.1012,-0.1012,-0.0995,-0.0993,-0.0992,0,0,0,0,0,-0.0854,-0.0855,-0.0862,-0.0866,-0.0892,-0.0906,-0.091,-0.0925,-0.093,-0.0932,-0.0946,-0.0956,-0.0983,-0.0983,-0.0987,-0.0987,-0.1013,-0.1012,-0.1012,-0.0996,-0.0994,-0.0992,0,0,0,0,0,0,-0.0832,-0.0858,-0.0866,-0.0874,-0.0888,-0.091,-0.0913,-0.0923,-0.0935,-0.0936,-0.0955,-0.096,-0.0969,-0.0979,-0.0979,-0.0992,-0.0999,-0.0999,-0.0985,-0.0984,-0.0982,-0.098,-0.0993,0,0,0,0,0,-0.0828,-0.0838,-0.086,-0.0865,-0.0872,-0.0891,-0.0898,-0.0909,-0.0924,-0.093,-0.0944,-0.0958,-0.097,-0.0977,-0.0989,-0.0997,-0.1002,-0.0999,-0.0997,-0.0996,-0.0996,-0.1002,-0.1001,-0.1011,-0.1011,-0.1011,0,0,-0.0821,-0.0836,-0.0841,-0.0862,-0.0874,-0.0883,-0.0896,-0.0905,-0.0913,-0.0931,-0.0943,-0.0954,-0.0971,-0.098,-0.0985,-0.0989,-0.0995,-0.0996,-0.0995,-0.0995,-0.1002,-0.1001,-0.1,-0.1011,-0.1011,-0.1011,0,0,-0.0812,-0.0824,-0.083,-0.0842,-0.086,-0.0873,-0.0875,-0.0896,-0.0904,-0.0916,-0.093,-0.0939,-0.0959,-0.0971,-0.0979,-0.0976,-0.0986,-0.098,-0.0972,-0.0978,-0.0977,-0.0976,-0.0976,-0.0975,-0.098,-0.098,-0.098,0,-0.08,-0.0815,-0.0832,-0.0841,-0.085,-0.0868,-0.0875,-0.0885,-0.0906,-0.0912,-0.0917,-0.0942,-0.0955,-0.0968,-0.0967,-0.0973,-0.0976,-0.0977,-0.0976,-0.0975,-0.0975,-0.0975,-0.0975,-0.0979,-0.0979,-0.0979,-0.0979,0,-0.08,-0.081,-0.0813,-0.0834,-0.0843,-0.0851,-0.087,-0.0877,-0.0888,-0.09,-0.0912,-0.0928,-0.0944,-0.0948,-0.0958,-0.0963,-0.0965,-0.0972,-0.0979,-0.0973,-0.0973,-0.0973,-0.0978,-0.0978,-0.0978,-0.0978,0,0,-0.0777,-0.0808,-0.0809,-0.0819,-0.0841,-0.0849,-0.0858,-0.0875,-0.0881,-0.0895,-0.0904,-0.092,-0.0928,-0.0938,-0.0949,-0.0954,-0.0952,-0.0961,-0.0961,-0.0959,-0.0959,-0.0953,-0.0953,-0.0958,-0.0958,-0.0958,-0.0958,0,-0.0772,-0.0789,-0.0805,-0.0817,-0.0827,-0.0845,-0.0853,-0.0867,-0.088,-0.0891,-0.0904,-0.0916,-0.0924,-0.0931,-0.0936,-0.0951,-0.0952,-0.0951,-0.0967,-0.0967,-0.0962,-0.0953,-0.0947,-0.0945,-0.0958,-0.0958,-0.0958,0,-0.0768,-0.0782,-0.0795,-0.0817,-0.0822,-0.0828,-0.0845,-0.0855,-0.0872,-0.0881,-0.0893,-0.0905,-0.0916,-0.0922,-0.0938,-0.0937,-0.0945,-0.0953,-0.0953,-0.0956,-0.0962,-0.0955,-0.0945,-0.0945,-0.0958,-0.0958,-0.0958,0,-0.0751,-0.0773,-0.0784,-0.0792,-0.0818,-0.0822,-0.0833,-0.0851,-0.086,-0.0874,-0.088,-0.0896,-0.0904,-0.0916,-0.0933,-0.0936,-0.0947,-0.0955,-0.0955,-0.0955,-0.0957,-0.0956,-0.0948,-0.0961,-0.0961,-0.0961,-0.0961,0,-0.0743,-0.0751,-0.0777,-0.0783,-0.0792,-0.0811,-0.082,-0.0832,-0.0848,-0.0857,-0.0873,-0.0882,-0.0903,-0.0915,-0.0928,-0.094,-0.0943,-0.0951,-0.0954,-0.095,-0.0949,-0.0955,-0.0956,-0.0961,-0.0961,-0.0961,-0.0961,0,-0.0726,-0.0744,-0.0757,-0.078,-0.0787,-0.0792,-0.0813,-0.082,-0.0834,-0.0846,-0.085,-0.0871,-0.0886,-0.0904,-0.0924,-0.0933,-0.0943,-0.0948,-0.0937,-0.0939,-0.0939,-0.0939,-0.0934,-0.0935,-0.0947,-0.0947,-0.0947,0,-0.072,-0.0726,-0.0751,-0.0759,-0.0769,-0.0781,-0.0791,-0.081,-0.0819,-0.084,-0.0845,-0.0861,-0.0875,-0.0897,-0.0915,-0.093,-0.0936,-0.0934,-0.0939,-0.0934,-0.0937,-0.0936,-0.0937,-0.0932,-0.0932,-0.0932,-0.0932,0,-0.0708,-0.0717,-0.073,-0.0747,-0.0758,-0.0771,-0.0786,-0.0792,-0.0814,-0.0824,-0.0839,-0.085,-0.0871,-0.0886,-0.0905,-0.0916,-0.0928,-0.093,-0.0931,-0.0926,-0.092,-0.0924,-0.0934,-0.093,-0.093,-0.093,-0.093,-0.093,-0.0697,-0.0703,-0.0722,-0.0736,-0.075,-0.0763,-0.0772,-0.0787,-0.08,-0.0819,-0.0829,-0.0844,-0.0863,-0.0888,-0.09,-0.0912,-0.0916,-0.0917,-0.0918,-0.0918,-0.0917,-0.0918,-0.0915,-0.0915,-0.0915,-0.0916,-0.0916,0,-0.0686,-0.0699,-0.0712,-0.0732,-0.0744,-0.0754,-0.0771,-0.078,-0.0794,-0.081,-0.0823,-0.0841,-0.0857,-0.0876,-0.0893,-0.0899,-0.0905,-0.0903,-0.0903,-0.0906,-0.0912,-0.0909,-0.0898,-0.0898,-0.0898,-0.0898,-0.0898,-0.0898,-0.0682,-0.0694,-0.0705,-0.0724,-0.0737,-0.0752,-0.0761,-0.0774,-0.0787,-0.0807,-0.082,-0.0833,-0.085,-0.0869,-0.0884,-0.0889,-0.0895,-0.0892,-0.0898,-0.0904,-0.0905,-0.0907,-0.0905,-0.0893,-0.0893,-0.0891,-0.0891,-0.0891]}]]